STARLINK-1254 (45216 NORAD) Tracking and Keplerian Element Data

This shows tracking and keplerian element data for the satellite.

Feedback or suggestion? Click here.




ElementValue
Catalog45216
NameSTARLINK-1254
Epoch Orbit751
Epoch Day94.25001157
Epoch Year2020
RAAN42.8334
Inclination52.9997
Eccentricity0.0008362
Argument of Perigee326.4442
Mean Anonmoly174.7959
Mean Motion15.62708249
Decay Rate0.00037036
L11 45216U 20012AQ 20094.25001157 .00037036 00000-0 40858-3 0 9996
L22 45216 52.9997 42.8334 0008362 326.4442 174.7959 15.62708249 7518

Live tracking and technical data element details for STARLINK-1254 (NORAD 45216). STARLINK-1254 can be tracked NOW for your location showing map with azimuth and elevation plus other details from your city location.

Track the satellite on the map from your city or location and see movement details for azimuth, elevation, latitude, longitude, range, height, and movement on the map or in text.







IsCatalogInMostPopularTable: catalog: 45216, numindb: 6
Update: records affected: 1



GetName: 45216 STARLINK-1254

Hit Count: updated at: Tue, 07 Apr 2020 16:39:18 GMT